Theta_e
293 293 293 293 294 294 294 294 294 295 296 297 297 297 297 297 296 295 294 294 293 292 292 292 291 293 293 294 297 299 297 298 289 286 288 288 287 287 285 286 286 285 285
291 291 291 291 292 291 291 291 292 292 293 293 294 293 293 293 293 292 291 290 289 288 288 288 288 290 289 290 291 291 292 293 293 286 285 284 286 286 286 285 285 284 283
289 289 288 289 289 289 289 290 290 290 290 290 290 289 289 289 289 289 289 287 287 286 287 286 285 286 284 286 287 287 288 289 290 287 283 285 284 283 283 283 283 282 284
288 287 286 286 287 287 288 288 288 288 289 288 288 288 288 288 287 287 287 286 286 285 285 284 284 284 284 284 284 284 286 286 286 285 283 281 282 281 281 281 280 281 280
286 285 285 286 286 286 286 287 287 287 287 287 287 287 287 287 287 285 286 285 284 284 284 284 284 285 286 286 284 284 285 284 283 282 281 281 280 280 279 279 278 279 280
285 284 284 284 284 284 285 285 285 285 285 286 286 285 285 286 287 287 285 284 283 282 281 282 282 283 284 285 285 285 284 282 281 282 281 279 278 279 278 278 277 277 276
284 284 284 283 283 283 284 283 283 283 284 284 284 284 284 284 285 284 283 281 281 280 280 279 279 280 281 281 283 283 282 283 283 280 279 278 278 277 277 277 277 276 276
284 284 284 284 284 283 283 283 283 283 283 283 283 283 283 284 285 284 283 281 281 281 281 281 280 280 280 280 280 279 279 279 279 279 278 278 278 278 277 277 275 275 276
283 283 284 284 283 283 282 282 283 283 282 282 283 283 282 283 284 284 282 281 280 280 281 281 281 281 282 282 280 279 278 277 279 280 279 279 279 279 279 277 275 273 273
282 282 283 283 283 282 282 281 282 282 281 281 281 282 283 283 285 284 282 281 280 280 281 281 282 281 281 281 279 279 278 276 277 278 278 278 278 277 277 277 276 272 272
282 282 282 282 282 282 282 282 281 281 281 280 280 281 281 282 283 284 284 281 281 281 281 280 281 282 282 281 281 279 278 278 277 276 277 277 277 277 276 276 276 274 271
281 280 280 281 281 282 281 281 281 281 280 280 280 280 280 281 283 284 284 283 282 282 280 280 280 281 281 281 280 280 280 278 277 276 275 276 276 276 276 275 274 273 274
279 277 279 279 280 281 282 281 282 281 282 280 281 281 280 280 281 282 283 283 282 280 280 280 280 280 281 281 280 280 276 277 276 274 275 275 276 275 273 272 274 272 270
278 278 279 279 280 280 282 282 283 282 281 281 281 281 280 280 280 280 281 281 280 280 279 278 279 279 279 279 276 278 277 277 276 275 275 275 275 274 274 274 274 272 273
278 278 280 280 280 280 280 281 280 281 281 281 282 281 281 281 280 282 282 282 282 281 277 278 278 277 277 277 277 276 276 276 276 276 275 276 276 276 275 276 275 273 270
278 280 280 280 281 280 280 281 281 281 282 281 282 282 282 282 283 284 284 284 284 283 278 279 279 279 278 278 278 278 278 277 277 277 276 275 274 274 274 273 272 272 271
272 275 277 277 279 279 279 279 280 280 280 281 282 284 283 283 283 283 284 284 284 284 281 281 280 279 278 278 277 276 276 276 275 273 273 273 273 273 271 270 271 271 270
271 270 274 276 277 278 278 278 278 278 279 280 280 280 280 280 281 281 281 281 281 283 281 280 278 278 278 277 276 276 275 274 274 274 273 272 271 270 269 269 269 268 267
271 273 272 274 275 272 274 276 277 277 277 278 278 279 277 278 279 279 278 276 274 275 275 274 274 273 273 273 273 272 272 271 270 268 268 268 268 268 267 267 267 265 265
272 269 268 272 274 274 274 274 275 275 275 275 276 274 276 276 276 275 273 272 271 271 270 270 270 270 270 269 269 268 268 268 268 268 267 266 266 267 266 265 266 265 264
270 272 266 274 273 273 273 273 273 274 274 274 272 271 274 272 270 270 269 268 266 266 266 266 266 267 267 266 266 266 266 266 266 265 265 265 264 263 264 264 263 262 262
270 271 271 270 271 270 270 271 271 272 271 270 269 268 271 268 267 266 266 265 265 264 264 263 264 265 264 263 263 263 263 263 264 264 263 263 263 264 263 263 263 263 263
270 270 270 269 270 269 269 268 267 268 267 266 266 265 265 264 264 264 264 263 263 263 262 261 261 260 261 261 262 261 260 261 263 263 261 261 262 262 262 262 262 261 262
268 268 268 267 266 266 266 266 266 264 264 265 265 264 264 264 264 263 263 263 262 264 264 263 262 261 261 262 264 264 264 263 262 262 262 261 261 262 261 261 262 262 262
266 265 265 265 265 265 265 264 264 264 264 263 263 263 264 264 264 264 264 264 262 263 263 262 262 262 263 262 263 265 265 266 263 264 263 262 262 262 262 262 262 262 261
264 264 263 263 263 263 263 263 262 262 262 263 263 263 264 263 263 264 263 263 262 263 263 263 263 262 262 263 262 265 267 270 271 269 267 265 263 262 263 262 262 262 262
Wind_Speed
10 10 10 11 10 8 8 10 9 9 9 7 10 8 9 7 7 10 9 8 8 9 8 9 9 5 6 4 5 5 5 2 5 3 2 3 3 3 4 3 3 3 2
10 11 15 13 11 12 12 12 10 11 11 9 11 10 11 8 10 11 12 10 10 10 10 10 10 8 6 7 7 7 7 6 3 5 2 2 2 2 1 2 3 2 3
12 14 14 13 12 12 13 12 11 10 11 11 12 14 11 10 12 12 12 11 12 10 12 10 11 6 8 6 6 6 5 4 4 4 3 2 3 2 1 2 3 2 3
14 15 13 13 12 12 11 11 11 11 11 12 12 13 12 12 13 11 11 11 10 11 11 11 9 8 7 7 5 3 5 5 6 5 4 3 3 1 0 2 2 2 2
16 14 12 11 11 11 12 11 11 12 12 12 12 12 12 12 8 9 9 10 11 11 11 12 10 11 15 10 3 4 5 5 4 4 3 3 2 2 1 1 2 4 3
14 13 11 12 12 11 11 11 11 11 12 12 12 11 11 8 16 15 10 8 9 9 10 9 8 10 14 17 17 19 13 4 5 3 2 3 3 3 2 2 2 2 3
13 12 12 11 10 10 9 10 10 11 10 12 11 11 12 11 15 15 14 8 9 9 8 7 6 5 4 5 11 16 17 19 15 5 5 4 3 3 1 2 1 2 3
12 11 9 10 10 9 9 11 11 9 10 10 10 10 9 10 15 15 13 9 9 9 8 7 6 6 5 4 6 8 9 10 9 6 6 4 4 3 2 1 2 3 5
12 11 10 9 10 9 9 11 7 8 8 9 7 9 9 8 13 13 10 8 8 8 7 7 6 6 8 8 6 6 6 6 7 8 7 5 3 1 1 1 2 1 3
10 9 8 8 8 9 9 8 7 7 7 6 7 7 7 8 12 11 7 4 6 5 5 5 10 7 8 9 5 4 4 3 2 2 1 1 1 1 3 4 2 2 2
6 7 8 7 8 7 7 7 6 6 5 5 6 6 7 6 7 10 9 4 3 3 3 3 3 6 6 8 8 4 3 2 1 1 1 2 1 2 2 2 3 2 2
6 7 7 7 6 5 6 5 4 3 4 4 3 4 3 4 7 9 9 7 5 2 3 2 2 2 2 2 3 3 3 1 1 2 2 2 1 1 1 2 3 2 4
5 5 5 4 4 4 3 3 2 3 3 2 2 2 2 2 3 7 6 6 6 3 2 2 2 0 2 1 0 2 0 1 1 2 3 2 2 1 1 3 4 5 5
4 4 3 3 4 3 2 2 2 2 1 1 1 1 1 2 2 1 1 2 2 2 2 1 2 2 3 2 1 2 1 1 1 3 3 2 2 2 4 2 5 3 6
4 3 3 3 3 3 2 2 2 1 2 3 2 2 2 2 1 3 3 1 1 1 1 1 1 2 2 1 1 2 1 2 4 3 2 5 6 5 5 4 4 4 6
4 3 3 3 2 2 3 2 4 4 4 3 3 3 1 4 5 6 6 6 6 4 1 2 3 4 4 5 4 5 4 3 4 4 5 5 6 6 6 4 4 6 7
5 4 4 3 3 2 2 2 3 2 2 2 3 4 5 7 8 9 9 10 10 8 4 4 2 2 2 2 3 3 5 5 3 3 4 5 5 5 5 5 6 6 7
6 4 4 4 4 4 4 4 3 3 3 2 4 6 8 10 10 9 9 7 4 3 3 3 3 3 3 3 4 4 4 5 4 4 4 4 4 5 5 5 5 6 6
5 4 5 4 3 4 4 4 3 3 3 4 4 2 7 11 7 6 9 4 4 4 4 4 4 4 4 4 4 4 4 4 4 4 4 4 4 4 5 4 5 6 6
4 3 4 3 3 3 3 3 3 3 3 3 3 5 4 4 3 3 4 3 4 4 4 5 5 4 4 4 4 4 4 4 4 3 3 4 4 4 5 5 5 6 6
5 5 4 3 4 3 3 3 3 3 3 3 5 6 11 4 5 5 5 5 5 5 5 5 5 4 4 4 4 4 4 4 4 4 4 4 3 4 4 4 5 4 5
4 4 4 4 4 5 5 4 4 4 5 5 5 5 11 5 4 4 5 4 4 3 3 3 4 4 4 4 4 4 4 4 4 4 4 4 4 4 4 4 4 4 5
4 5 5 5 4 5 5 6 6 5 5 5 5 5 5 5 5 5 5 4 3 3 2 3 3 3 3 2 2 2 3 4 4 4 4 4 4 4 3 4 5 5 5
4 5 5 5 5 5 5 5 5 6 6 5 5 5 5 4 5 4 3 4 4 4 3 3 2 4 4 4 3 3 4 4 4 5 5 4 4 5 3 4 5 6 5
5 5 6 5 5 5 5 5 5 5 5 5 5 5 4 4 4 4 4 4 3 3 4 3 2 5 6 8 7 6 7 9 8 8 4 5 6 7 6 5 5 5 6
5 6 5 5 5 5 5 5 5 5 5 4 4 4 4 5 5 5 5 6 6 5 6 5 6 8 9 6 6 11 11 12 8 4 3 4 4 4 4 4 6 5 6
Wind_Direction
59 56 65 52 50 46 55 43 35 32 33 47 67 66 56 61 67 81 77 65 68 85 59 64 75 46 60 28 60 55 62 47 91 81 61 131 149 145 142 226 191 236 205
61 59 52 51 41 47 44 42 37 44 38 36 58 61 63 51 64 77 77 70 67 79 70 66 66 50 48 57 54 53 52 32 105 111 127 107 192 177 153 232 237 245 263
60 54 47 42 43 42 46 41 36 50 54 51 59 55 48 65 63 60 79 77 76 67 74 67 61 62 59 56 60 58 58 58 70 119 111 90 81 47 253 229 263 298 269
66 61 50 41 37 41 45 45 45 42 52 54 56 62 53 58 58 61 68 81 90 78 72 68 65 56 63 62 74 94 104 93 93 101 95 107 99 102 352 332 299 213 306
62 58 52 49 45 46 45 47 49 48 50 53 54 57 59 61 65 68 73 76 79 82 85 74 68 68 66 55 47 30 72 87 90 95 102 116 104 129 63 15 310 328 296
57 56 54 50 44 44 43 40 48 50 53 51 54 59 67 70 80 86 89 93 93 83 79 74 62 60 67 74 71 65 55 55 68 76 59 85 78 71 58 20 345 345 326
63 56 51 53 53 46 50 53 53 54 60 67 59 56 60 65 74 75 75 74 74 76 80 83 77 67 69 86 77 74 62 60 57 51 88 56 82 53 2 344 14 256 257
57 56 53 65 60 58 51 54 42 48 47 46 57 63 69 72 75 75 70 70 72 68 65 69 76 73 50 62 75 68 63 55 49 51 64 73 77 94 61 14 336 303 283
49 47 40 42 54 54 50 52 48 59 56 53 42 58 57 51 65 69 72 72 70 64 57 47 65 68 46 51 68 74 76 72 65 65 76 80 76 69 335 327 272 327 281
39 40 43 40 51 53 55 54 43 45 52 55 64 52 53 60 52 59 62 79 87 83 76 76 71 70 61 54 63 72 79 63 49 24 57 42 40 255 253 246 241 243 287
38 44 43 41 50 52 54 48 51 51 60 53 56 44 42 37 51 48 59 62 73 82 88 75 76 80 69 57 56 56 67 101 10 330 302 260 217 211 220 233 256 237 242
33 44 38 33 37 40 51 45 39 56 58 44 53 62 41 18 43 45 53 70 62 79 82 102 103 102 80 80 63 62 66 102 340 314 318 287 268 281 247 208 224 244 261
29 30 28 33 39 30 50 58 60 47 37 30 33 49 39 19 28 41 40 54 54 65 66 78 93 357 343 2 307 282 153 238 282 293 280 270 238 211 289 257 235 227 237
16 18 14 25 9 22 15 20 27 46 43 22 22 33 46 34 34 12 5 6 51 92 98 59 9 339 269 285 320 272 219 262 274 276 278 290 318 273 268 264 292 308 294
356 356 1 3 358 344 355 343 354 52 9 1 25 14 352 69 39 329 316 294 253 69 77 274 248 235 265 269 243 219 234 233 243 244 276 294 297 297 288 283 271 258 260
337 359 6 328 339 328 330 331 224 277 294 278 275 277 287 258 266 282 289 290 293 212 221 288 302 299 297 302 302 300 298 291 294 298 294 292 285 295 299 304 302 287 279
346 336 331 316 337 327 320 319 324 181 165 19 332 343 12 351 340 330 320 310 300 285 241 255 241 262 308 314 313 307 300 295 309 298 280 290 298 295 301 296 292 281 275
336 333 335 339 337 334 335 334 345 340 343 3 61 29 20 6 353 350 353 322 302 276 295 324 331 332 335 314 313 318 330 327 317 315 314 310 305 297 295 288 288 294 303
340 349 339 331 341 342 328 331 323 322 321 327 341 45 24 352 341 15 28 18 354 337 5 348 354 344 341 339 337 331 328 320 326 300 282 284 294 298 294 293 299 299 297
331 355 319 327 346 355 6 354 353 356 351 353 3 29 350 332 355 25 38 9 6 11 3 352 353 348 348 341 338 332 319 319 317 318 317 313 308 311 305 305 299 302 302
334 339 337 322 11 5 11 15 10 359 2 33 50 15 11 8 15 21 16 22 17 5 0 349 337 340 344 340 329 327 324 320 318 317 313 310 323 303 295 295 296 294 294
347 356 9 9 11 28 22 28 28 34 32 33 33 26 26 33 25 20 21 16 4 349 341 322 316 338 331 337 327 319 316 314 314 317 321 317 300 300 297 291 287 286 290
19 27 41 40 36 37 47 41 33 38 42 39 33 27 25 21 19 15 7 357 343 325 329 318 325 326 327 309 301 292 301 305 315 314 300 298 301 300 305 300 301 296 293
54 57 61 63 46 50 46 44 46 46 35 35 29 30 22 14 13 10 4 350 336 336 343 334 312 306 305 294 297 280 263 246 248 255 253 257 276 285 278 278 281 285 289
43 51 50 50 47 47 51 47 43 37 40 35 30 28 22 19 16 17 9 353 328 334 335 318 302 317 320 315 310 307 287 274 253 243 235 233 249 263 264 268 277 284 286
51 55 55 53 53 49 48 48 45 39 33 29 25 20 16 14 9 12 357 354 343 335 338 337 332 330 325 319 321 321 316 314 328 351 272 226 250 266 268 269 283 286 285